GFSNE_500_spd_000.txt.gz
Wind_Speed
49 50 51 53 55 57 59 61 65 66 65 65 65 65 67 67 67 68 67 65 63 64 63 63 64 68 75 76 77 74 74 72 68 64 62 62 61 59
52 54 56 60 61 64 66 67 70 72 73 70 70 69 70 70 70 71 73 71 67 68 67 67 65 72 74 79 78 80 79 77 72 70 66 65 65 64
66 68 69 70 70 71 71 71 72 73 76 74 77 77 75 74 76 75 76 75 72 70 71 73 71 71 77 75 82 84 85 82 79 74 71 68 67 66
75 75 73 71 71 72 73 74 74 73 76 75 76 79 82 80 80 83 81 81 80 79 77 74 76 73 77 80 71 86 87 87 83 80 76 74 70 65
75 75 74 74 74 72 70 70 70 71 70 73 74 75 78 82 83 85 88 86 83 81 81 81 79 79 79 71 76 85 92 90 86 85 81 79 75 70
74 72 69 64 61 59 57 55 53 55 57 57 61 67 69 73 78 82 88 93 91 85 84 84 83 84 86 85 81 88 90 93 90 88 75 69 75 74
54 48 41 38 37 36 36 33 36 35 34 34 34 37 46 52 59 63 75 86 93 88 87 86 84 82 89 92 91 84 93 98 92 90 85 71 79 71
31 30 31 31 30 30 32 33 36 37 38 41 40 38 35 38 39 43 52 67 86 89 85 88 91 84 90 93 99 74 87 101 96 92 89 90 84 82
28 28 29 31 33 33 35 36 36 39 39 42 41 41 39 41 42 44 45 53 65 83 82 84 89 100 86 84 81 91 83 93 97 97 94 90 87 88
32 34 34 35 38 39 40 39 41 44 45 43 41 44 44 44 45 45 45 46 49 63 73 76 80 87 92 82 70 66 86 89 95 102 100 94 91 92
34 38 38 38 42 45 45 46 47 45 46 47 45 42 43 43 46 47 44 46 46 54 66 71 70 76 84 100 71 85 68 68 71 87 93 96 100 97
37 40 42 43 41 39 38 34 32 35 40 48 50 50 49 47 47 47 44 45 46 51 49 67 67 70 74 77 80 72 71 69 68 69 77 86 87 93
36 36 35 35 35 34 29 29 29 30 31 33 37 43 50 52 51 49 45 44 48 45 54 65 67 66 72 79 88 67 56 65 62 72 76 76 76 80
29 24 22 23 19 19 19 19 20 21 23 24 28 30 35 42 45 49 45 44 47 45 52 57 65 65 71 79 88 72 57 65 59 60 63 72 71 68
17 18 19 16 16 18 22 24 22 22 21 20 23 28 31 35 42 44 38 36 44 47 35 45 60 63 68 69 74 88 72 63 60 56 56 54 63 69
19 19 17 18 19 19 20 18 17 20 22 21 25 26 29 36 40 40 34 29 43 49 54 53 57 62 65 67 63 71 68 68 57 63 63 57 61 67
20 20 19 16 14 16 16 12 9 11 14 20 30 25 26 30 33 33 29 32 41 44 46 51 50 59 61 66 64 65 73 65 59 61 59 58 60 58
17 17 17 14 10 9 7 8 12 12 16 26 25 13 17 22 23 23 25 32 36 40 40 42 48 53 59 62 66 64 80 76 65 58 59 59 62 57
17 15 15 14 12 5 5 7 15 20 22 26 23 6 12 16 19 21 25 29 34 36 37 38 42 48 55 59 63 63 66 72 68 66 63 59 56 52
20 18 16 14 11 9 8 6 12 14 13 15 17 8 7 14 15 15 20 27 29 32 34 36 39 45 51 55 59 60 60 59 61 64 64 62 60 60
16 19 22 16 16 13 9 10 14 17 13 13 17 18 6 1 11 16 18 20 23 26 29 33 38 41 45 53 55 58 58 57 55 57 58 60 58 50
13 16 20 22 21 19 14 11 14 20 18 16 21 19 19 13 4 3 10 22 24 24 28 31 38 41 41 48 52 55 57 57 55 51 51 51 50 53
11 14 17 19 20 22 22 21 18 14 18 21 26 23 19 12 14 9 4 6 14 22 26 30 34 39 40 42 47 50 53 54 53 52 51 51 52 51

GFSNE_500_spd_003.txt.gz
Wind_Speed
63 57 53 50 48 48 50 55 58 61 63 65 71 75 76 79 80 79 78 76 74 71 69 68 63 65 63 61 61 63 62 67 73 74 72 70 67 63
55 52 51 51 50 51 51 53 55 59 62 62 66 71 77 79 80 80 80 80 78 77 75 73 71 69 69 65 66 61 65 70 63 73 76 75 71 67
57 59 59 60 61 62 63 64 65 66 64 63 67 70 72 74 79 81 83 83 82 81 79 78 76 75 73 72 68 75 62 60 66 73 80 79 77 72
65 67 68 69 69 69 68 69 70 72 74 71 73 72 74 75 76 79 82 83 84 84 84 83 81 80 78 75 76 75 75 67 52 69 81 88 80 77
67 69 70 70 70 70 71 71 71 72 74 76 77 77 78 79 80 82 82 83 85 84 86 86 86 85 84 82 79 77 76 83 74 68 75 84 86 81
67 67 67 66 66 66 67 68 69 71 71 72 74 77 81 85 87 86 87 87 88 90 89 88 89 89 88 86 83 82 79 79 77 82 76 79 84 85
57 53 49 46 46 44 44 45 50 55 59 63 66 67 69 73 81 85 88 89 90 91 94 94 91 90 91 90 89 87 86 86 79 77 76 73 73 86
38 35 30 29 30 31 31 31 34 34 32 32 35 45 49 54 64 70 75 82 88 88 92 94 95 96 96 96 93 91 89 89 84 69 74 69 70 78
25 24 25 26 29 30 30 30 30 31 32 33 30 29 29 30 34 36 41 57 73 78 86 94 97 98 99 98 97 94 94 92 88 87 82 76 78 78
26 29 30 31 33 33 32 33 34 35 33 32 33 38 40 40 41 44 43 39 36 43 56 79 90 99 99 101 99 97 100 93 95 89 86 80 79 74
33 35 36 38 39 40 38 37 38 41 41 41 41 42 44 46 46 48 48 46 39 35 38 40 58 80 90 96 101 99 103 98 98 97 97 81 79 86
33 34 37 39 39 39 39 37 34 31 32 35 37 41 47 48 50 49 49 48 45 46 44 39 38 45 57 76 91 98 99 99 100 98 102 88 84 81
31 32 29 24 22 22 29 33 31 29 29 32 35 37 40 44 50 52 50 50 49 44 44 42 39 43 44 50 68 84 90 94 95 94 98 87 78 87
29 27 25 24 21 20 16 15 18 18 17 18 20 23 27 31 36 42 49 53 53 49 47 43 41 43 47 49 56 67 75 85 95 82 76 83 80 83
24 23 22 21 17 18 16 15 14 16 18 19 21 22 25 29 32 39 38 42 48 52 48 46 40 40 47 41 50 59 63 68 87 80 70 80 76 76
17 20 21 18 15 14 12 15 13 13 15 19 21 22 24 27 34 32 36 35 40 45 44 41 39 44 48 41 46 57 60 62 72 89 76 56 60 74
13 17 22 22 15 7 7 8 10 7 12 14 20 26 31 39 30 30 31 33 35 38 39 37 39 40 34 48 46 52 59 63 67 77 86 75 62 69
13 12 18 23 19 9 6 9 11 16 18 21 24 29 30 17 17 21 26 30 32 33 35 34 44 48 46 45 46 48 55 59 59 62 72 66 57 63
18 12 12 17 16 13 11 13 15 12 11 18 23 20 12 13 14 17 22 25 28 29 33 38 53 52 42 41 44 46 49 54 56 55 70 58 53 45
15 15 9 10 10 10 10 16 10 7 8 15 21 16 9 5 10 16 20 23 25 25 29 35 41 44 46 45 40 42 45 49 51 52 53 54 51 53
10 12 13 11 10 6 7 11 16 20 21 17 18 20 17 9 1 9 14 19 22 24 27 30 33 34 40 45 41 34 39 47 47 46 56 49 45 46
7 8 10 12 14 12 8 7 12 18 24 26 22 19 19 18 11 4 6 8 10 19 24 27 31 31 36 38 44 40 38 45 47 51 52 45 44 40
5 7 7 8 10 12 14 14 14 17 21 25 29 29 21 17 18 14 9 0 12 15 18 22 25 29 34 35 40 43 41 43 44 45 47 44 44 41

GFSNE_500_spd_006.txt.gz
Wind_Speed
69 67 66 66 64 63 62 60 56 54 54 56 61 68 74 81 88 89 90 88 86 83 80 75 75 71 69 65 68 68 56 56 64 63 64 65 69 65
65 63 61 61 62 60 57 55 53 53 50 51 54 62 70 77 84 91 91 92 93 91 88 85 82 78 75 74 71 74 65 71 59 65 67 65 69 74
61 61 60 60 60 60 60 58 56 57 55 54 54 57 64 72 77 85 93 94 93 95 93 91 89 86 83 79 78 77 82 67 55 55 66 60 65 68
61 62 62 65 65 66 67 67 67 66 65 63 62 61 61 65 71 77 86 93 96 96 97 97 94 93 90 85 81 80 80 89 78 57 59 62 56 62
60 61 62 64 65 67 68 69 70 70 70 70 70 71 72 71 70 73 78 85 93 98 98 98 100 98 97 92 89 85 84 80 81 77 66 61 60 61
60 62 63 64 65 65 66 67 68 70 71 74 75 75 78 78 78 78 76 79 84 92 98 100 100 102 102 100 95 92 88 85 81 81 84 65 68 62
54 55 55 55 53 51 51 50 54 57 61 66 69 74 76 80 83 83 84 84 83 84 90 98 100 100 102 103 101 98 94 89 87 86 87 90 70 66
47 39 36 33 30 28 29 30 29 29 27 33 44 56 65 74 78 82 85 86 89 89 87 88 93 100 103 103 102 101 99 96 92 89 88 88 87 70
28 25 25 26 29 29 31 33 32 31 30 29 25 26 32 42 58 71 79 84 87 87 91 91 91 91 94 103 107 105 103 101 98 96 93 91 88 89
24 26 30 33 36 37 35 35 35 34 34 35 34 34 33 35 37 44 60 74 80 83 85 91 94 96 97 97 99 104 107 103 101 100 98 97 94 90
29 33 36 36 37 38 38 39 39 38 37 37 36 36 37 35 38 40 37 40 50 63 73 80 85 91 96 99 102 103 103 105 102 100 102 100 98 93
31 32 35 37 37 34 30 26 24 31 34 35 39 43 41 42 41 42 44 40 38 39 41 44 56 63 78 88 98 104 107 106 107 104 100 102 100 100
29 30 32 32 28 25 24 20 22 28 25 26 28 31 34 36 40 45 48 50 50 47 48 49 44 42 41 43 61 90 104 109 111 111 106 103 101 103
25 23 22 23 24 21 18 16 15 11 10 14 17 20 24 29 35 40 42 47 54 55 55 53 54 53 54 51 47 44 67 98 106 109 112 109 107 104
19 19 16 18 17 12 13 11 11 11 13 16 19 21 26 28 31 33 33 36 41 48 57 58 56 58 58 53 49 46 44 56 78 100 105 109 109 109
19 20 18 21 19 10 2 5 8 8 8 9 14 17 21 26 31 34 36 37 36 40 45 57 60 60 58 53 52 50 47 48 51 57 74 94 104 105
14 11 16 20 20 13 9 8 11 13 16 18 22 26 30 33 34 35 35 39 35 39 42 46 55 60 57 55 50 47 48 44 41 46 51 68 85 95
7 7 11 10 12 14 16 18 17 17 15 14 18 25 31 28 29 31 33 36 38 37 37 41 45 47 50 47 46 46 44 43 41 48 54 56 62 76
8 9 7 4 6 9 12 15 17 17 17 21 24 27 20 11 9 9 13 20 26 29 30 35 38 41 43 42 43 43 46 45 37 41 48 51 52 54
7 10 8 5 3 4 7 12 18 24 25 21 17 22 19 9 6 12 12 15 18 22 26 29 32 34 36 41 42 44 44 40 44 39 44 44 47 48
4 6 9 7 4 4 7 10 16 19 23 26 22 18 22 15 5 7 10 14 16 19 22 26 25 29 35 43 45 37 35 32 34 40 38 36 39 45
2 4 6 7 8 9 10 12 14 16 21 26 29 22 20 21 16 9 2 8 12 16 20 21 23 28 38 52 50 40 34 30 39 39 40 34 41 39
0 3 4 4 5 7 9 11 14 16 19 21 24 27 22 22 23 16 9 2 4 7 15 19 21 25 32 35 39 38 41 34 31 37 40 37 33 41

GFSNE_500_spd_009.txt.gz
Wind_Speed
72 71 73 76 84 79 76 72 70 65 63 60 60 64 67 69 74 79 82 84 86 92 88 84 76 69 76 76 85 91 86 75 74 57 63 59 59 66
74 80 83 82 80 75 71 67 66 64 59 58 55 57 59 61 65 74 77 80 82 89 94 90 79 73 73 74 79 80 83 79 75 68 47 60 58 60
75 76 73 71 69 67 67 66 66 65 61 56 56 54 54 55 58 65 73 75 79 83 92 94 93 80 67 70 78 74 74 75 82 76 58 54 56 58
61 63 64 65 65 67 69 69 70 69 68 63 61 59 57 56 57 60 67 74 75 80 84 96 97 96 89 82 75 78 75 77 82 81 76 59 59 50
58 60 61 61 62 64 65 66 67 68 69 68 65 64 64 64 63 62 63 67 73 74 80 86 98 100 103 90 80 81 83 81 78 78 78 78 60 60
55 58 60 63 64 65 66 66 67 67 68 70 69 70 70 70 71 70 69 67 68 70 72 79 87 100 106 104 96 84 88 86 84 83 86 80 65 65
56 56 57 59 60 61 61 59 60 61 63 66 67 68 70 74 75 76 76 76 75 73 71 73 79 88 99 107 103 100 93 92 91 90 90 84 86 78
50 52 56 51 44 38 34 30 28 30 31 35 41 51 61 69 74 77 79 80 78 79 80 77 76 79 88 97 106 106 102 101 98 96 94 90 88 86
50 47 36 29 30 31 33 34 34 35 35 34 32 31 32 37 54 68 75 81 81 81 83 83 83 77 81 88 96 103 107 106 103 103 100 95 92 90
39 28 25 28 33 38 39 39 40 40 40 41 39 38 36 34 32 34 50 69 78 80 82 84 85 83 84 82 86 95 99 105 108 106 105 103 99 95
26 26 30 34 38 40 39 38 38 37 41 43 43 39 39 41 40 37 35 37 48 62 75 82 84 86 87 88 86 85 90 98 103 108 108 107 106 103
24 28 34 36 36 37 35 33 29 28 26 27 34 40 42 42 42 42 40 35 37 37 46 64 74 83 86 87 88 89 89 90 95 101 107 108 109 108
23 29 33 33 31 32 33 22 19 18 21 26 29 32 33 36 41 44 45 42 37 35 39 39 49 65 78 79 83 87 90 93 93 94 101 105 108 108
23 26 26 22 23 26 21 13 12 12 14 16 17 18 24 28 31 34 37 40 43 43 44 40 39 41 48 59 67 75 83 89 93 96 97 99 105 106
21 18 14 12 14 14 12 8 8 12 17 19 17 17 19 21 23 23 25 29 34 38 44 48 47 46 43 41 43 47 55 69 80 88 95 100 100 102
13 13 10 12 16 13 12 13 13 13 16 17 17 17 19 22 25 27 29 30 31 32 35 40 46 53 53 51 51 51 51 51 50 56 68 89 101 104
10 9 2 5 3 8 13 15 16 16 18 18 17 18 21 25 28 33 35 34 33 34 35 36 39 45 50 57 56 56 58 54 48 46 47 51 67 94
6 3 2 0 6 8 9 13 19 21 22 19 18 20 21 28 27 30 38 39 42 39 38 38 39 41 44 48 56 59 59 58 57 57 52 50 47 50
5 1 2 2 3 5 9 15 21 20 23 23 23 22 24 26 19 10 13 23 32 38 41 43 44 39 38 42 46 55 57 57 56 56 54 53 53 50
2 3 1 0 2 5 8 14 16 17 21 25 26 25 26 25 21 8 7 7 11 17 23 30 35 38 37 37 39 42 51 53 56 56 54 49 45 43
2 2 2 3 3 4 6 6 10 15 20 24 27 27 28 29 21 12 7 10 10 11 13 17 20 25 29 30 34 38 43 47 47 45 43 36 40 41
2 3 2 3 4 4 4 6 11 14 18 21 23 25 25 27 30 19 11 6 9 12 13 14 16 21 25 29 32 36 38 39 38 36 31 33 41 42
0 2 4 5 6 7 9 10 12 14 15 16 19 20 21 24 27 28 24 15 9 8 12 15 13 14 17 25 32 35 37 37 35 30 27 31 37 40

GFSNE_500_spd_015.txt.gz
Wind_Speed
65 55 52 50 64 74 66 70 75 67 67 71 70 72 72 69 67 68 68 67 71 78 84 85 84 85 89 92 91 92 89 91 87 82 76 68 63 63
53 51 54 62 62 61 69 76 75 78 78 74 74 67 67 70 75 76 77 78 76 76 81 86 88 88 88 91 94 93 93 91 91 84 80 63 63 78
47 47 48 54 61 65 67 68 71 74 77 73 77 76 77 79 81 80 77 73 70 71 75 79 85 88 90 90 94 95 94 92 93 88 81 70 69 67
44 45 47 50 52 55 57 61 65 69 77 81 77 76 72 65 64 64 65 65 65 66 69 73 76 81 86 90 91 96 95 92 91 92 84 79 64 71
52 55 50 48 48 50 52 53 54 56 58 61 59 59 61 61 61 63 65 65 66 67 68 69 71 74 78 83 85 89 92 88 87 91 90 86 72 62
48 46 44 46 47 48 49 50 52 54 56 59 59 60 62 62 63 64 65 67 66 66 66 67 68 68 69 73 78 80 82 83 85 88 94 89 82 87
43 44 46 47 48 49 49 50 53 55 55 56 55 57 59 60 61 63 64 67 69 69 68 67 67 67 65 66 68 71 75 76 80 87 94 97 97 80
44 46 47 48 49 50 51 51 50 49 50 54 53 46 39 38 38 41 50 58 65 71 70 69 69 66 65 65 64 65 68 71 76 82 91 98 101 91
48 47 47 47 47 46 45 45 46 45 36 31 31 33 36 39 39 38 37 36 38 48 63 67 68 65 67 66 65 63 64 66 71 77 86 94 97 103
48 46 44 43 42 40 39 39 31 30 35 39 41 42 43 44 46 46 43 40 38 36 38 48 60 62 66 68 66 64 62 63 66 72 79 88 91 98
47 44 41 38 36 35 30 25 29 34 38 38 35 33 33 36 39 44 44 44 42 40 39 35 40 49 60 65 67 66 64 62 63 66 72 81 88 91
39 37 34 31 29 23 20 24 24 25 24 24 22 21 20 23 26 28 34 41 43 43 42 37 35 37 46 57 65 68 67 65 64 63 67 73 83 87
26 26 24 24 17 13 15 12 9 9 9 9 11 14 16 18 21 23 26 30 33 36 44 40 38 38 34 37 52 63 67 69 68 66 64 68 74 81
17 16 17 15 9 9 5 6 8 9 11 12 14 16 17 19 20 23 26 27 30 35 37 41 40 38 37 37 35 47 59 66 69 70 68 66 68 73
12 11 11 10 8 7 1 5 9 11 14 15 15 17 19 20 20 21 21 22 20 23 27 31 38 41 39 38 38 36 43 56 65 70 71 69 69 69
10 7 9 7 11 7 2 3 12 11 15 19 18 15 15 17 21 24 24 24 22 20 22 26 31 34 39 41 40 39 35 39 53 64 70 71 70 70
9 4 3 5 8 7 3 3 9 11 15 19 22 22 23 19 16 22 25 27 29 27 24 23 25 27 33 35 40 41 39 35 35 50 60 66 70 71
5 4 3 6 9 8 4 3 7 10 14 17 19 23 28 31 26 18 12 11 16 27 30 28 25 23 27 29 34 36 40 39 37 34 42 53 61 66
4 4 5 8 10 7 5 3 6 8 13 16 17 20 25 29 33 28 18 12 11 4 13 25 28 26 25 26 27 30 32 36 39 38 36 36 45 55
3 5 5 6 7 6 4 2 4 7 11 14 16 19 23 26 29 33 27 16 10 8 4 8 19 27 28 28 27 26 25 26 28 35 40 39 35 38
4 3 4 5 5 4 2 1 4 7 10 12 14 17 21 23 26 28 30 26 17 8 4 4 6 15 25 29 31 32 31 28 26 25 28 36 42 42
3 3 2 1 2 2 1 1 3 6 8 10 13 15 18 21 21 22 25 26 26 19 12 4 5 7 10 15 22 30 33 32 31 28 27 29 33 42
2 2 2 2 1 1 2 2 4 6 8 10 12 13 16 18 19 19 19 21 23 24 20 15 5 5 7 9 12 14 21 28 32 33 34 32 35 36

GFSNE_500_spd_018.txt.gz
Wind_Speed
75 68 69 69 64 55 56 58 59 68 67 69 77 76 74 74 74 72 71 73 74 77 80 81 82 83 85 85 85 86 86 86 86 86 84 83 82 82
58 52 47 43 47 54 59 55 63 66 67 72 72 74 74 74 80 74 74 77 77 75 76 78 81 83 85 86 87 88 88 88 88 88 88 87 85 84
49 49 49 49 46 47 51 62 69 70 68 66 67 68 66 68 71 76 78 80 86 83 80 78 80 85 86 88 89 89 90 90 91 91 91 91 89 87
52 51 50 52 51 50 49 50 55 64 73 76 74 73 72 71 68 69 71 74 76 77 77 76 78 81 86 88 90 91 90 89 92 93 94 92 92 90
52 53 52 52 50 50 51 46 46 49 53 56 54 56 57 58 63 69 75 79 80 80 85 84 86 84 80 84 85 88 93 92 91 92 93 95 95 93
50 50 48 46 45 44 43 43 44 45 47 50 49 49 53 54 57 59 62 66 68 72 75 78 77 75 74 74 75 77 80 90 94 92 93 95 97 95
48 47 46 44 44 44 44 43 44 45 47 49 49 48 51 53 55 58 61 64 66 68 71 71 72 74 75 74 72 72 72 75 83 86 89 92 95 96
52 52 51 49 47 45 45 45 46 47 46 47 45 43 45 49 50 52 55 58 60 64 64 66 72 72 72 72 72 72 70 69 72 76 78 83 90 94
55 54 52 50 49 47 46 45 43 42 40 41 41 40 38 36 35 33 34 36 37 40 45 52 62 69 71 71 71 70 69 68 69 71 73 75 79 85
52 52 51 49 46 43 40 37 36 34 35 34 29 29 32 36 39 41 43 44 44 43 43 40 40 43 59 70 71 69 68 67 68 68 69 70 74 77
43 43 43 42 39 37 32 29 27 24 26 30 32 31 31 33 35 37 39 43 45 47 48 46 44 43 40 43 60 67 67 67 67 68 67 67 69 75
34 35 35 30 27 25 22 17 17 17 16 16 16 16 18 22 26 28 31 33 36 39 43 47 48 46 44 39 39 52 62 66 66 68 67 66 67 71
28 27 23 18 16 14 13 11 8 8 11 12 13 13 14 17 20 22 24 25 25 25 31 38 41 44 44 42 33 36 53 61 66 68 66 66 66 67
21 16 12 10 10 11 10 8 8 9 6 8 10 13 16 20 24 27 28 28 26 26 30 31 33 34 41 43 41 37 34 54 62 67 68 65 67 66
7 6 7 7 8 9 10 8 2 1 4 8 11 12 12 15 21 24 28 30 27 24 27 27 28 35 36 40 41 39 34 33 52 63 66 66 66 67
8 9 5 6 8 13 12 9 2 3 7 9 12 16 20 23 19 17 23 28 30 29 27 26 25 28 30 34 38 38 37 32 33 49 60 64 66 66
8 6 5 6 10 13 12 8 3 3 6 8 12 15 19 22 26 22 16 16 20 27 28 27 24 22 24 28 31 35 36 35 30 32 45 57 64 67
5 4 5 10 11 12 11 7 3 1 4 7 9 13 17 21 25 28 25 17 14 11 20 26 25 21 20 21 24 27 31 36 36 34 31 39 54 62
2 4 7 11 11 10 9 6 3 1 2 5 8 11 14 19 23 26 29 25 16 11 6 15 24 24 23 22 22 22 25 29 36 39 37 33 33 51
1 3 5 8 9 8 8 6 5 2 1 3 7 11 13 16 19 23 26 29 24 14 8 4 10 21 24 24 23 22 22 25 29 33 37 37 34 34
2 1 4 5 7 8 8 6 5 3 1 3 7 10 12 13 16 19 21 23 26 22 12 4 3 6 16 24 24 23 22 22 22 26 31 36 38 35
1 1 0 2 4 5 6 5 4 3 2 4 7 9 10 12 14 16 17 18 21 23 22 14 5 4 5 10 19 26 27 27 26 24 23 27 34 39
4 2 1 1 2 3 5 6 6 5 4 4 6 7 9 10 12 13 13 14 16 18 20 21 17 8 5 6 8 10 20 29 31 31 31 28 27 30

GFSNE_500_spd_021.txt.gz
Wind_Speed
76 76 76 71 64 61 59 55 55 57 58 62 67 73 78 83 85 81 71 80 82 77 75 77 80 79 77 77 77 77 79 82 84 84 85 85 84 82
62 57 51 48 48 48 44 51 46 58 62 57 50 58 65 68 74 80 74 73 80 79 77 77 82 82 82 80 79 79 79 80 82 84 85 86 87 86
48 46 46 49 49 49 48 49 51 51 53 62 62 58 63 63 61 67 72 68 73 74 74 77 75 78 79 80 82 83 84 83 83 84 85 86 87 89
48 49 49 51 52 52 52 51 52 50 54 52 57 53 58 66 66 67 68 67 66 68 74 78 77 76 80 83 84 85 85 85 85 86 88 88 88 89
49 49 49 50 50 50 49 47 47 47 49 50 47 49 52 55 61 65 69 71 70 72 76 73 74 74 77 81 82 82 83 86 87 87 87 90 92 91
51 51 51 50 49 48 46 44 43 42 42 41 41 43 46 49 52 56 59 62 65 72 77 79 81 80 78 81 83 87 88 85 86 87 89 90 91 93
54 54 54 54 52 51 49 47 45 44 43 42 38 39 42 44 48 52 55 57 58 61 64 66 67 74 80 82 82 84 86 92 93 93 91 90 92 93
52 52 52 53 53 52 51 48 48 46 45 43 42 42 44 45 46 49 51 54 56 60 64 64 67 65 65 65 68 73 76 83 88 90 90 90 94 95
48 48 48 47 47 47 46 46 45 44 44 43 42 41 41 41 42 44 46 48 50 54 58 59 63 65 67 69 70 70 69 70 71 73 75 75 76 85
45 45 44 43 42 42 39 39 39 38 38 37 36 33 33 33 33 35 36 38 40 42 45 49 52 57 63 65 67 70 71 72 73 72 71 72 70 72
41 41 41 39 36 34 31 30 28 29 30 28 25 24 26 29 32 35 36 40 41 43 46 47 47 46 46 46 50 59 65 71 72 73 71 70 70 70
35 35 36 34 29 26 23 19 19 21 20 16 13 12 14 16 19 21 26 29 33 35 40 45 46 50 52 51 48 45 41 42 60 72 72 70 71 72
30 28 26 24 21 16 14 15 16 15 12 10 13 16 18 19 20 20 22 25 27 27 31 35 35 44 48 50 53 52 48 42 37 48 66 71 71 71
24 19 14 8 7 11 12 13 13 11 10 11 10 9 8 10 16 20 25 29 33 33 35 35 31 31 33 39 44 49 49 46 36 38 52 66 71 72
11 2 3 2 2 6 10 14 10 8 8 4 4 5 7 12 13 13 15 19 25 31 31 33 30 30 31 30 33 40 45 46 42 33 36 55 68 71
5 4 3 2 3 5 13 12 11 9 5 5 4 7 10 12 15 18 19 19 19 23 26 29 29 27 27 28 32 35 38 43 41 38 36 36 52 66
5 4 5 3 6 11 12 12 10 7 5 3 3 6 9 11 14 17 20 22 21 19 20 23 26 25 25 23 24 27 31 37 39 38 35 33 35 50
5 5 5 7 9 11 12 10 7 5 3 2 2 5 9 11 14 17 21 24 25 22 20 11 18 22 22 22 19 21 24 30 36 37 35 33 29 33
5 4 3 6 8 9 8 7 5 5 4 3 0 4 7 9 12 15 18 21 25 24 19 15 8 16 20 20 20 19 18 23 31 35 35 34 32 30
6 2 2 5 7 7 6 8 8 7 6 4 3 4 7 8 10 12 15 18 21 24 22 14 11 8 17 20 21 20 19 19 23 29 34 36 35 33
4 4 4 6 8 9 10 10 10 9 8 6 4 4 6 7 9 10 12 14 17 19 22 19 12 8 6 15 21 21 22 21 20 22 28 32 36 37
4 4 4 4 6 7 8 9 9 8 8 6 5 5 5 7 8 9 10 10 12 15 17 19 18 10 7 6 8 18 23 22 22 21 21 26 30 35
11 8 6 4 4 5 7 9 9 10 9 8 7 7 7 8 10 10 10 9 9 11 12 13 14 15 12 6 6 8 9 19 26 27 25 23 23 27

GFSNE_500_spd_024.txt.gz
Wind_Speed
72 71 68 63 59 58 57 56 55 51 50 56 60 52 62 72 79 83 83 82 84 86 78 75 71 71 73 76 78 76 75 76 76 77 78 79 80 80
53 51 49 48 48 50 49 46 45 45 43 42 44 52 44 46 53 68 66 73 77 80 81 77 73 75 75 76 78 79 77 75 75 76 78 78 79 82
47 49 48 48 48 49 50 50 49 48 47 42 47 48 51 50 49 53 62 76 81 77 77 75 75 70 75 74 77 80 78 77 74 76 78 78 78 80
47 47 47 47 47 48 49 49 49 49 48 46 43 47 49 50 51 54 55 57 60 62 62 61 62 65 68 71 75 76 78 77 76 76 77 78 79 78
49 50 50 51 51 52 52 50 48 46 45 44 40 43 46 50 55 54 52 53 58 64 63 62 59 57 64 66 70 74 77 77 79 79 78 79 80 81
53 53 53 53 53 54 54 54 52 49 46 42 38 38 41 43 46 50 51 51 51 55 62 68 67 63 62 61 65 72 77 77 78 78 76 76 79 81
54 52 51 50 51 51 53 53 53 52 49 45 41 39 37 39 41 45 49 52 51 52 52 54 61 68 68 67 67 66 72 76 78 80 81 79 80 80
51 49 48 47 47 48 48 49 48 48 48 46 42 40 39 39 39 40 41 43 46 49 52 52 56 57 62 70 74 72 72 73 74 76 78 81 80 81
45 44 43 43 44 46 44 44 42 41 42 42 40 39 40 41 42 42 43 45 47 49 52 52 55 55 57 57 60 63 68 73 76 80 82 83 84 84
40 40 40 39 39 40 38 35 34 33 34 35 36 34 35 35 38 39 40 42 43 44 48 49 52 53 56 57 58 59 59 61 65 69 73 80 83 85
38 37 37 37 35 35 31 27 26 26 26 27 26 26 28 29 29 30 30 34 33 34 39 43 44 48 51 53 54 57 60 62 62 63 65 68 73 78
39 37 36 35 30 26 23 20 19 21 18 17 18 17 16 15 16 16 19 22 27 29 36 43 41 43 43 43 44 45 49 56 61 63 65 67 68 69
31 30 28 24 18 15 13 12 12 14 14 12 11 10 11 14 17 18 19 20 20 20 30 34 32 37 41 43 48 51 52 51 49 49 54 59 66 69
22 18 13 9 5 2 2 7 11 12 12 11 9 9 11 11 10 10 11 15 19 25 32 37 37 36 37 36 36 41 48 52 55 53 48 45 43 51
19 16 13 11 9 5 3 9 12 13 11 8 7 8 7 6 6 6 7 8 11 14 18 25 33 37 38 36 36 36 34 41 48 51 53 50 46 43
16 14 13 11 7 5 7 10 11 11 10 9 10 8 6 5 6 7 9 11 14 18 21 25 23 26 30 32 32 32 34 33 36 41 47 51 48 43
15 14 11 10 10 9 9 10 10 9 10 11 8 6 5 4 5 7 9 13 16 19 22 27 24 16 23 25 26 28 28 29 30 35 40 45 48 46
12 11 8 7 7 8 7 6 5 6 8 9 7 5 2 2 4 7 9 12 16 19 22 23 24 9 12 18 20 22 22 24 27 31 35 40 44 43
12 9 5 4 2 2 2 2 1 3 5 6 6 3 1 2 3 6 8 11 13 16 20 22 20 13 9 14 17 19 20 19 22 25 30 35 39 39
11 9 6 5 5 6 5 5 5 5 6 7 6 5 4 3 3 5 7 8 10 13 16 18 19 16 12 11 15 17 18 19 18 20 22 27 33 36
10 8 8 7 7 8 10 10 10 8 8 9 8 7 6 5 5 6 6 7 8 10 13 14 16 16 12 10 8 17 19 19 19 19 19 21 24 30
13 11 8 7 7 8 9 9 10 9 9 10 10 8 7 8 8 7 7 8 8 9 10 11 12 13 14 11 8 8 12 20 22 22 22 20 19 22
18 17 14 11 9 7 7 8 10 11 11 11 12 11 9 10 10 10 10 9 9 10 10 10 11 10 10 11 11 8 10 11 12 24 25 24 22 20

GFSNE_500_spd_027.txt.gz
Wind_Speed
61 58 54 52 49 47 43 51 51 49 47 47 53 62 66 70 76 81 81 79 84 87 86 79 79 77 76 72 73 75 77 77 76 75 74 75 78 78
46 43 44 45 45 46 48 49 49 54 41 38 37 42 47 51 57 65 73 83 86 85 82 76 70 79 79 73 75 75 78 79 80 79 78 77 78 79
44 45 44 45 46 47 47 48 49 51 49 40 40 42 43 45 47 49 55 58 69 74 84 79 82 77 78 76 74 78 78 80 81 82 81 80 80 79
47 48 48 48 49 50 50 51 52 52 51 45 42 43 45 50 48 49 54 54 55 63 72 78 73 74 74 70 76 78 77 78 81 83 84 83 82 82
50 50 51 53 53 54 54 54 55 55 54 49 45 42 42 45 48 49 54 53 58 58 65 62 66 73 72 66 63 65 72 77 80 84 85 85 84 83
52 55 55 55 54 54 55 54 53 54 54 53 49 46 43 42 44 46 48 54 55 54 57 60 58 60 62 65 67 65 66 72 77 82 84 85 84 84
53 50 49 47 47 50 51 50 49 49 49 50 49 48 45 43 43 43 44 48 51 55 59 60 59 62 60 61 61 57 55 61 67 73 79 81 80 80
48 43 41 41 44 45 46 45 46 45 43 44 45 46 45 44 44 44 40 40 42 45 49 52 55 53 55 59 61 65 63 60 60 66 74 80 81 82
44 41 41 41 42 41 40 39 38 39 40 39 40 40 41 41 43 42 41 38 38 40 42 45 50 50 52 54 58 63 66 69 66 65 67 73 78 81
46 45 42 39 41 40 38 36 33 32 32 34 35 34 35 35 38 38 39 39 38 39 42 42 47 48 52 51 52 54 58 64 69 71 71 69 72 79
39 38 38 36 34 33 32 31 28 26 27 28 27 28 28 26 31 32 33 37 37 39 43 45 45 48 50 51 53 55 55 55 60 68 75 75 75 75
35 34 33 30 26 25 24 21 18 19 20 20 19 19 20 22 23 23 24 23 25 28 36 35 34 38 40 43 48 51 54 57 59 60 62 68 74 79
29 27 26 22 17 13 11 10 9 11 13 13 14 15 14 14 13 13 14 16 17 19 24 24 28 35 37 38 41 43 45 49 53 56 60 62 65 68
25 26 24 22 17 12 8 3 4 8 11 14 15 14 11 8 9 12 14 15 16 18 19 20 26 30 33 34 36 41 43 46 48 49 52 57 60 64
24 23 23 19 15 11 7 4 5 9 13 14 12 9 7 7 7 6 4 2 1 4 8 11 15 19 27 35 40 42 40 39 41 47 51 53 52 53
23 21 19 16 14 13 12 10 8 10 12 12 13 12 11 10 9 8 5 4 4 6 10 13 19 23 19 27 30 36 41 39 39 38 39 46 52 55
19 16 15 13 13 13 12 11 10 9 11 13 11 10 10 8 6 5 3 2 4 7 10 16 21 26 18 12 16 23 26 30 30 32 33 35 43 50
16 13 10 10 9 9 8 8 7 5 7 9 8 8 7 5 4 2 1 1 3 6 10 15 21 25 18 8 9 12 14 17 20 23 28 28 32 40
13 13 10 7 6 6 5 5 4 3 2 6 7 7 6 5 4 3 3 3 3 5 8 12 16 21 20 8 8 12 13 15 17 17 21 23 29 34
12 12 11 9 8 8 8 7 6 5 3 5 8 8 7 6 6 5 5 6 5 5 7 9 11 14 15 14 8 13 16 16 17 17 17 19 22 26
13 12 11 10 9 9 9 10 10 9 7 7 9 10 9 9 8 7 7 8 8 7 7 7 9 11 13 13 12 8 12 20 21 20 19 19 17 18
14 16 15 13 11 10 9 10 10 10 10 10 10 11 12 11 10 9 9 10 10 10 9 9 9 10 10 11 13 13 9 8 13 22 24 23 20 18
16 15 18 18 17 15 12 9 9 11 12 12 13 13 14 14 12 11 12 12 12 12 12 12 12 12 12 11 11 12 12 11 11 13 12 21 26 24